Weather Roundup
Issued by NWS

Home | Current Version | Previous Version | Text Only | Print | Product List | Glossary On
Versions: 1 2 3 4 5 6 7 8 9 10 11 12 13 14 15 16 17 18 19 20 21 22 23 24 25 26 27 28 29 30 31 32 33 34 35 36 37 38 39 40 41 42 43 44 45 46 47 48 49 50
000
NZUS93 KARX 311610
HRRWXR

CURRENT HOURLY OBSERVATIONS ACROSS
MUCH OF THE UPPER MISSISSIPPI VALLEY
NATIONAL WEATHER SERVICE LA CROSSE WI
1100 AM CDT THU JUL 31 2014


...SOUTHEAST MINNESOTA...


CITY           SKY/WX    TMP DP  RH WIND       PRES   REMARKS
ROCHESTER      SUNNY     75  58  55 W6        30.08S
ROCHESTER/MAYO FAIR      74  52  47 W6        30.07S
WINONA         SUNNY     73  61  64 CALM      30.04S
AUSTIN         SUNNY     73  57  56 W7        30.08S
ALBERT LEA     SUNNY     75  55  50 W5        30.08S
DODGE CENTER   SUNNY     73  57  56 W9        30.08R
PRESTON        SUNNY     73  62  70 NW8       30.08S
OWATONNA       SUNNY     75  57  53 W8        30.07S
FARIBAULT      SUNNY     79  54  41 W7        30.07S
$$

...ELSEWHERE IN MINNESOTA...


CITY           SKY/WX    TMP DP  RH WIND       PRES   REMARKS
MINNEAPOLIS    MOSUNNY   77  54  44 W8        30.04S
INTNL FALLS    SUNNY     74  56  53 N9        30.00S
DULUTH         SUNNY     75  56  51 NW3       30.00S
RED WING       SUNNY     77  61  57 W3        30.03S
REDWOOD FALLS  SUNNY     76  58  53 N7        30.07S
MANKATO        SUNNY     73  57  56 W6        30.07F
WORTHINGTON    SUNNY     73  55  53 CALM      30.11S
FAIRMONT       SUNNY     77  52  41 NW6       30.08S
$$

...SOUTHWEST WISCONSIN...


CITY           SKY/WX    TMP DP  RH WIND       PRES   REMARKS
LA CROSSE      SUNNY     76  62  62 CALM      30.03F
PRAIRIE DU CHI SUNNY     76  58  53 W5        30.05S
BOSCOBEL       SUNNY     77  60  55 W6        30.05S
LONE ROCK      SUNNY     79  64  60 W7        30.04S
PLATTEVILLE    SUNNY     75  62  63 W9        30.08R
FORT MC COY    SUNNY     73  59  61 W7        30.04S
CAMP DOUGLAS   SUNNY     75  64  69 W10       30.03S
VIROQUA        FAIR      73  62  67 SW5       30.06S
WIS DELLS      SUNNY     77  57  50 W13       30.03S
$$

...ELSEWHERE IN WISCONSIN...


CITY           SKY/WX    TMP DP  RH WIND       PRES   REMARKS
MILWAUKEE      SUNNY     75  59  57 W10       30.01S
MADISON        SUNNY     77  61  57 VRB6      30.03S
GREEN BAY      MOSUNNY   72  64  76 W5        29.98S
EAU CLAIRE     NOT AVBL
BLACK RVR FLS  FAIR      75  58  56 W7        30.02S
MEDFORD        PTSUNNY   70  62  76 W9        30.02S
WAUSAU         PTSUNNY   72  61  68 W7        29.99S
WIS RAPIDS     SUNNY     74  62  66 W9        30.02S
MARSHFIELD     PTSUNNY   73  62  68 W10       30.01S
RICE LAKE      MOSUNNY   72  60  67 W8        30.03S
$$

...NORTHEAST IOWA...


CITY           SKY/WX    TMP DP  RH WIND       PRES   REMARKS
WATERLOO       SUNNY     76  58  53 W8        30.08S
DUBUQUE        SUNNY     74  60  61 W10       30.08S
DECORAH        SUNNY     73  61  64 VRB6      30.07S
MASON CITY     SUNNY     75  58  55 NW5       30.10S
CHARLES CITY   SUNNY     73  59  60 VRB5      30.09S
OELWEIN        SUNNY     73  61  64 W9        30.10R
$$

...ELSEWHERE IN IOWA...


CITY           SKY/WX    TMP DP  RH WIND       PRES   REMARKS
DES MOINES     MOSUNNY   77  60  55 W5        30.10S
IOWA CITY      SUNNY     77  61  57 W9        30.10S
FORT DODGE     SUNNY     75  61  60 W6        30.11S
MARSHALLTOWN   SUNNY     75  62  64 NW7       30.09S
CEDAR RAPIDS   SUNNY     76  61  59 NW9       30.08F
$$

...NORTHERN ILLINOIS...


CITY           SKY/WX    TMP DP  RH WIND       PRES   REMARKS
CHICAGO-OHARE  SUNNY     77  57  50 W9        30.04S
DUPAGE         SUNNY     78  62  57 SW7       30.05S
CHICAGO-MIDWAY SUNNY     79  60  52 SW12      30.05R
MOLINE         SUNNY     78  60  53 W8        30.08S
ROCKFORD       SUNNY     77  61  57 SW8       30.07R
STERLING       SUNNY     79  64  61 NW7       30.08S
PEORIA         SUNNY     79  62  56 VRB7      30.09S
$$

NOTE: "FAIR" INDICATES FEW OR NO CLOUDS BELOW 12,000 FEET WITH NO
SIGNIFICANT WEATHER AND/OR OBSTRUCTIONS TO VISIBILITY. WIND
SPEEDS ARE IN MILES-PER-HOUR.



USA.gov is the U.S. government's official web portal to all federal, state and local government web resources and services.